Location: Copper Breaks State Park
(34.1132°N, 99.7492°W)
Time: 16:38:47
(UTC-05:00)

Amateur Radio Satellites - All Passes

Search period start: 24 July 2014 16:08
Search period end: 25 July 2014 16:08
Location: Copper Breaks State Park, 34.1132°N, 99.7492°W

Satellite Date Start Highest point End Downlink Frequencies (MHz)
Time Altitude Azimuth
TMSAT-1 24 Jul 16:12:53 16:18:11 77° 258° (WSW) 16:23:30 436.925 FM
ITAMSAT 1 24 Jul 16:24:08 16:27:17 16° 266° (W) 16:30:27 435.822 SSB
Gurwin Techsat 1B 24 Jul 16:34:44 16:39:28 33° 263° (W) 16:44:14 435.225 FM
KITSAT 1 24 Jul 16:44:08 16:51:39 40° 55° (NE) 16:59:06 435.175 FM
AO-Echo 24 Jul 16:44:32 16:44:47 10° 270° (W) 16:45:02 ?
Uosat F 24 Jul 16:53:20 16:58:17 59° 74° (ENE) 17:03:15 435.120 FM
Oscar 10/S400 24 Jul 17:03:37 17:09:19 11° 159° (SSE) 17:14:09 145.825 - 145.975 CW/USB, Beacon 145.810 USB
UOSAT-12 24 Jul 17:04:28 17:08:40 35° 305° (NW) 17:12:58 437.025 FM, 437.400 FM
JAS-1B 24 Jul 17:05:29 17:12:20 28° 269° (W) 17:20:05 435.800 - 435.900 CW/SSB
RS-15 24 Jul 17:08:22 17:17:45 31° 316° (NW) 17:27:05 29.354 - 29.394 USB, Beacon 29.352 USB
JAS-2 24 Jul 17:20:25 17:23:10 12° 58° (ENE) 17:25:52 435.800 - 435.900 CW/SSB, 435.910 FM
OPAL 24 Jul 17:31:10 17:36:10 62° 103° (ESE) 17:41:14 ?
AO-7 24 Jul 17:49:09 17:57:17 56° 257° (WSW) 18:05:29 29.400 - 29.500 MHz
Saudisat 1A 24 Jul 17:50:18 17:53:10 17° 50° (NE) 17:56:00 436.775 MHz
Uosat F 24 Jul 18:35:14 18:37:23 13° 267° (W) 18:39:32 435.120 FM
KITSAT 1 24 Jul 18:39:35 18:46:57 40° 252° (WSW) 18:54:17 435.175 FM
JAS-2 24 Jul 18:59:09 19:06:57 70° 74° (ENE) 19:14:31 435.800 - 435.900 CW/SSB, 435.910 FM
OPAL 24 Jul 19:12:00 19:14:31 14° 298° (WNW) 19:17:03 ?
Hamsat 24 Jul 19:16:44 19:20:49 55° 260° (W) 19:24:56 145.90 MHz
Saudisat 1A 24 Jul 19:28:45 19:32:57 45° 245° (WSW) 19:37:07 436.775 MHz
RS-15 24 Jul 19:33:20 19:35:28 11° 350° (N) 19:37:36 29.354 - 29.394 USB, Beacon 29.352 USB
STRAND 1 24 Jul 19:46:45 19:51:18 32° 98° (E) 19:55:48 ?
SO-67 24 Jul 19:51:33 19:54:52 45° 76° (ENE) 19:58:12 435.3500 MHz FM
HO-68 24 Jul 20:05:21 20:07:25 11° 55° (NE) 20:09:28 435.675 MHz FM
JAS-2 24 Jul 20:46:43 20:52:18 21° 268° (W) 20:57:49 435.800 - 435.900 CW/SSB, 435.910 FM
UKube-1 24 Jul 21:11:39 21:14:20 16° 67° (ENE) 21:17:01 145.840 MHz, 145.915 MHz
STRAND 1 24 Jul 21:26:12 21:30:18 25° 292° (WNW) 21:34:22 ?
HO-68 24 Jul 21:46:44 21:53:52 73° 72° (ENE) 22:01:01 435.675 MHz FM
RS-15 24 Jul 21:48:21 21:54:57 17° 29° (NNE) 22:01:37 29.354 - 29.394 USB, Beacon 29.352 USB
Oscar 11 24 Jul 22:00:58 22:04:34 26° 71° (ENE) 22:08:09 145.825 FM, Beacon 2401.500 USB
FUNcube-1 24 Jul 22:11:28 22:13:05 12° 67° (ENE) 22:14:43 145.950 - 145.970 MHz USB
MaSat-1 24 Jul 22:32:41 22:36:03 34° 105° (ESE) 22:39:58 437.345 MHz
UKube-1 24 Jul 22:46:09 22:50:12 37° 261° (W) 22:54:16 145.840 MHz, 145.915 MHz
SO-50 24 Jul 23:10:52 23:15:13 34° 55° (NE) 23:19:35 436.795 FM
Oscar 11 24 Jul 23:37:25 23:40:41 21° 265° (W) 23:43:57 145.825 FM, Beacon 2401.500 USB
HO-68 24 Jul 23:37:45 23:42:05 17° 267° (W) 23:46:26 435.675 MHz FM
FUNcube-1 24 Jul 23:44:45 23:49:03 50° 260° (W) 23:53:16 145.950 - 145.970 MHz USB
RS-15 24 Jul 23:59:21 00:10:16 60° 56° (ENE) 00:21:33 29.354 - 29.394 USB, Beacon 29.352 USB
Lituanica SAT-1 25 Jul 00:00:20 00:02:24 80° 136° (SE) 00:04:29 437.275 MHz beacon
MaSat-1 25 Jul 00:11:01 00:13:37 16° 306° (NW) 00:16:27 437.345 MHz
SO-50 25 Jul 00:51:49 00:55:35 23° 249° (WSW) 00:59:23 436.795 FM
ISS 25 Jul 01:04:09 01:07:14 36° 132° (SE) 01:10:20 145.800 FM
UOSAT-12 25 Jul 01:37:08 01:41:52 71° 60° (ENE) 01:46:29 437.025 FM, 437.400 FM
Sapphire 25 Jul 01:42:45 01:47:23 30° 108° (ESE) 01:52:02 437.095 MHz 1200 baud AX-25 AFSK
RS-15 25 Jul 02:12:29 02:22:00 34° 254° (WSW) 02:31:54 29.354 - 29.394 USB, Beacon 29.352 USB
PCSat 25 Jul 02:15:46 02:21:07 69° 113° (ESE) 02:26:30 145.825 MHz
Oscar 19 25 Jul 02:20:55 02:24:55 22° 95° (E) 02:28:55 437.125 CW, 437.150 USB
ISS 25 Jul 02:41:27 02:44:01 20° 327° (NNW) 02:46:36 145.800 FM
Oscar 16 25 Jul 02:47:45 02:52:41 45° 99° (E) 02:57:37 437.025 USB, Beacon 2401.1428
AO-40 25 Jul 02:54:46 03:34:57 11° 107° (ESE) 04:06:31 Beacon 2401.320
ITAMSAT 1 25 Jul 02:59:56 03:04:05 24° 96° (E) 03:08:11 435.822 SSB
JAS-1B 25 Jul 03:05:35 03:12:43 25° 90° (E) 03:19:04 435.800 - 435.900 CW/SSB
AO-Echo 25 Jul 03:12:11 03:16:46 33° 97° (E) 03:21:12 ?
Gurwin Techsat 1B 25 Jul 03:16:39 03:19:07 13° 92° (E) 03:21:35 435.225 FM
AO-27 25 Jul 03:17:26 03:22:14 37° 98° (E) 03:26:59 436.795 MHz FM
Uribyol 2 25 Jul 03:19:58 03:24:50 41° 99° (E) 03:29:40 436.500 FM
Sapphire 25 Jul 03:25:56 03:30:41 31° 303° (WNW) 03:35:29 437.095 MHz 1200 baud AX-25 AFSK
Oscar 19 25 Jul 03:59:37 04:04:17 35° 289° (WNW) 04:08:57 437.125 CW, 437.150 USB
PCSat 25 Jul 04:01:52 04:05:02 16° 310° (NW) 04:08:13 145.825 MHz
Oscar 16 25 Jul 04:28:11 04:31:39 19° 294° (WNW) 04:35:08 437.025 USB, Beacon 2401.1428
TMSAT-1 25 Jul 04:32:39 04:37:53 59° 101° (E) 04:43:05 436.925 FM
ITAMSAT 1 25 Jul 04:38:57 04:43:33 33° 290° (WNW) 04:48:08 435.822 SSB
OPAL 25 Jul 04:42:38 04:47:33 72° 73° (ENE) 04:52:29 ?
AO-Echo 25 Jul 04:51:21 04:55:18 23° 292° (WNW) 04:59:09 ?
Gurwin Techsat 1B 25 Jul 04:54:12 04:59:26 61° 286° (WNW) 05:04:38 435.225 FM
JAS-1B 25 Jul 04:54:31 05:03:55 67° 289° (WNW) 05:11:58 435.800 - 435.900 CW/SSB
AO-27 25 Jul 04:57:33 05:01:28 22° 293° (WNW) 05:05:22 436.795 MHz FM
Uribyol 2 25 Jul 05:00:19 05:03:58 20° 293° (WNW) 05:07:37 436.500 FM
Uosat F 25 Jul 05:05:33 05:09:37 24° 96° (E) 05:13:39 435.120 FM
Oscar 10/S400 25 Jul 05:40:56 07:04:57 51° 234° (SW) 13:13:25 145.825 - 145.975 CW/USB, Beacon 145.810 USB
AO-7 25 Jul 05:54:46 06:03:04 66° 104° (ESE) 06:11:16 29.400 - 29.500 MHz
TMSAT-1 25 Jul 06:14:22 06:17:15 15° 296° (WNW) 06:20:09 436.925 FM
PANSAT 25 Jul 06:26:17 06:28:06 13° 159° (SSE) 06:29:55 not established
Uosat F 25 Jul 06:43:59 06:48:21 31° 290° (WNW) 06:52:42 435.120 FM
JAS-1B 25 Jul 06:48:17 06:52:20 14° 309° (NW) 06:56:13 435.800 - 435.900 CW/SSB
STRAND 1 25 Jul 06:59:07 07:03:39 32° 70° (ENE) 07:08:11 ?
Hamsat 25 Jul 07:06:17 07:10:10 33° 98° (E) 07:14:03 145.90 MHz
KITSAT 1 25 Jul 07:07:56 07:15:30 45° 109° (ESE) 07:23:04 435.175 FM
ISS 25 Jul 07:36:57 07:38:26 12° 28° (NNE) 07:39:55 145.800 FM
Lituanica SAT-1 25 Jul 07:47:56 07:49:58 52° 225° (SW) 07:51:59 437.275 MHz beacon
AO-7 25 Jul 07:48:46 07:55:08 25° 301° (WNW) 08:01:30 29.400 - 29.500 MHz
JAS-2 25 Jul 07:59:31 08:05:34 83° 103° (ESE) 08:10:58 435.800 - 435.900 CW/SSB, 435.910 FM
PANSAT 25 Jul 08:04:25 08:07:47 29° 170° (S) 08:11:08 not established
MaSat-1 25 Jul 08:31:04 08:36:13 48° 63° (ENE) 08:41:05 437.345 MHz
STRAND 1 25 Jul 08:38:38 08:42:48 25° 264° (W) 08:46:59 ?
Hamsat 25 Jul 08:43:02 08:45:51 17° 291° (WNW) 08:48:41 145.90 MHz
SO-67 25 Jul 08:51:53 08:55:22 80° 282° (WNW) 08:58:50 435.3500 MHz FM
KITSAT 1 25 Jul 09:03:36 09:10:56 37° 307° (NW) 09:18:19 435.175 FM
ISS 25 Jul 09:12:12 09:15:33 87° 225° (SW) 09:18:54 145.800 FM
HO-68 25 Jul 09:20:58 09:24:56 15° 93° (E) 09:28:52 435.675 MHz FM
Saudisat 1A 25 Jul 09:31:18 09:35:42 72° 300° (WNW) 09:40:08 436.775 MHz
PANSAT 25 Jul 09:44:06 09:47:37 34° 183° (S) 09:51:08 not established
JAS-2 25 Jul 09:47:44 09:49:35 12° 302° (WNW) 09:51:23 435.800 - 435.900 CW/SSB, 435.910 FM
MaSat-1 25 Jul 10:09:39 10:13:07 18° 259° (W) 10:16:26 437.345 MHz
Sapphire 25 Jul 10:35:46 10:38:09 13° 48° (NE) 10:40:30 437.095 MHz 1200 baud AX-25 AFSK
UKube-1 25 Jul 10:37:56 10:42:09 47° 100° (E) 10:46:19 145.840 MHz, 145.915 MHz
HO-68 25 Jul 11:06:04 11:13:12 77° 287° (WNW) 11:20:19 435.675 MHz FM
PCSat 25 Jul 11:08:03 11:12:32 26° 55° (NE) 11:16:59 145.825 MHz
PANSAT 25 Jul 11:24:26 11:27:24 21° 195° (SSW) 11:30:22 not established
Oscar 11 25 Jul 11:27:30 11:31:51 89° 283° (WNW) 11:36:11 145.825 FM, Beacon 2401.500 USB
FUNcube-1 25 Jul 11:37:44 11:41:37 37° 99° (E) 11:45:31 145.950 - 145.970 MHz USB
UKube-1 25 Jul 12:15:55 12:17:54 13° 294° (WNW) 12:19:52 145.840 MHz, 145.915 MHz
Sapphire 25 Jul 12:16:48 12:22:15 86° 245° (WSW) 12:27:39 437.095 MHz 1200 baud AX-25 AFSK
PCSat 25 Jul 12:51:02 12:56:00 38° 251° (WSW) 13:00:56 145.825 MHz
HO-68 25 Jul 12:57:11 12:59:44 12° 304° (NW) 13:02:16 435.675 MHz FM
FUNcube-1 25 Jul 13:15:28 13:17:41 14° 292° (WNW) 13:19:54 145.950 - 145.970 MHz USB
SO-50 25 Jul 13:23:04 13:26:38 24° 111° (ESE) 13:30:14 436.795 FM
Oscar 19 25 Jul 13:34:33 13:38:28 23° 68° (ENE) 13:42:23 437.125 CW, 437.150 USB
JAS-1B 25 Jul 13:46:25 13:51:36 17° 54° (NE) 13:57:04 435.800 - 435.900 CW/SSB
Oscar 16 25 Jul 14:01:08 14:05:58 44° 72° (ENE) 14:10:49 437.025 USB, Beacon 2401.1428
ITAMSAT 1 25 Jul 14:14:27 14:18:42 26° 68° (ENE) 14:22:58 435.822 SSB
RS-15 25 Jul 14:17:50 14:28:39 55° 111° (ESE) 14:39:09 29.354 - 29.394 USB, Beacon 29.352 USB
AO-Echo 25 Jul 14:21:06 14:25:41 31° 70° (ENE) 14:30:20 ?
AO-27 25 Jul 14:31:55 14:36:45 40° 71° (ENE) 14:41:35 436.795 MHz FM
Uribyol 2 25 Jul 14:34:10 14:39:04 43° 72° (ENE) 14:43:58 436.500 FM
Gurwin Techsat 1B 25 Jul 14:34:12 14:37:18 16° 65° (ENE) 14:40:25 435.225 FM
SO-50 25 Jul 15:03:09 15:07:01 29° 306° (NW) 15:10:58 436.795 FM
AO-7 25 Jul 15:03:59 15:06:20 11° 50° (NE) 15:08:40 29.400 - 29.500 MHz
KITSAT 1 25 Jul 15:07:16 15:10:43 13° 37° (NE) 15:14:09 435.175 FM
Oscar 19 25 Jul 15:12:55 15:17:33 35° 262° (W) 15:22:13 437.125 CW, 437.150 USB
JAS-1B 25 Jul 15:31:59 15:40:19 79° 73° (ENE) 15:49:59 435.800 - 435.900 CW/SSB
Oscar 16 25 Jul 15:42:09 15:45:29 17° 266° (W) 15:48:49 437.025 USB, Beacon 2401.1428
UOSAT-12 25 Jul 15:44:43 15:49:07 50° 115° (ESE) 15:53:37 437.025 FM, 437.400 FM
TMSAT-1 25 Jul 15:49:39 15:54:52 63° 74° (ENE) 16:00:07 436.925 FM
ITAMSAT 1 25 Jul 15:53:24 15:58:01 32° 262° (W) 16:02:39 435.822 SSB
